This demonstration page uses our WeatherBlox Daily Observations layout. Learn more.

Left ArrowRight Arrow

40.92501, -98.34201

Hourly Observations for August 17, 2022

Temp ( °F °C ) Dew Point ( °F °C ) Humidity (%) Winds ( mph kmh ) Pressure ( in mb ) Visibility ( mi km ) Precip ( " mm )
1:53 am 01:53 Clear with Mist and Fog 61 16.1 59 15 93 93 NW 3 6 30.17 1022 4 6 0.00 0.00
2:53 am 02:53 Clear with Mist and Fog 59 15 57 13.9 93 93 WNW 5 7 30.17 1022 3 5 0.00 0.00
3:37 am 03:37 Clear with Mist and Fog 59 15 57 13.9 93 93 Calm 30.15 1021 3 4 0.00 0.00
3:50 am 03:50 Mostly Clear with Mist and Fog 59 15 57 14 94 94 NW 3 6 30.15 1021 1 1 0.00 0.00
3:53 am 03:53 Mostly Clear with Fog 59 15 57 13.9 93 93 NW 3 6 30.17 1022 1 1 0.00 0.00
4:23 am 04:23 Partly Cloudy with Mist and Fog 58 14.4 56 13.3 93 93 N 3 6 30.16 1021 2 3 0.00 0.00
4:34 am 04:34 Mostly Clear with Mist and Fog 58 14.4 57 13.9 97 97 NNW 5 7 30.16 1021 1 2 0.00 0.00
4:42 am 04:42 Clear with Mist and Fog 58 14.4 56 13.3 93 93 NNW 3 6 30.16 1021 1 2 0.00 0.00
4:53 am 04:53 Clear with Mist and Fog 58 14.4 57 13.9 97 97 NNW 5 7 30.18 1022 3 4 0.00 0.00
5:06 am 05:06 Clear with Mist and Fog 59 15 57 13.9 93 93 N 3 6 30.15 1021 3 5 0.00 0.00
5:13 am 05:13 Clear with Mist and Fog 59 15 57 13.9 93 93 N 5 7 30.15 1021 2 3 0.00 0.00
5:25 am 05:25 Clear with Fog 58 14.4 56 13.3 93 93 N 5 7 30.16 1021 1 1 0.00 0.00
5:53 am 05:53 Mostly Clear with Fog 57 13.9 56 13.3 96 96 N 3 6 30.18 1022 0 0 0.00 0.00
6:07 am 06:07 Mostly Clear with Fog 57 13.9 55 12.8 93 93 N 3 6 30.17 1022 0 0 0.00 0.00
6:14 am 06:14 Mostly Clear with Fog 56 13.3 55 12.8 97 97 N 3 6 30.17 1022 0 0 0.00 0.00
6:34 am 06:34 Mostly Clear with Fog 57 13.9 55 12.8 93 93 N 5 7 30.18 1022 0 0 0.00 0.00
6:44 am 06:44 Mostly Clear with Fog 57 13.9 56 13.3 96 96 N 3 6 30.18 1022 0 0 0.00 0.00
6:53 am 06:53 Partly Cloudy with Fog 56 13.3 54 12.2 93 93 Calm 30.20 1023 0 0 0.00 0.00
7:13 am 07:13 Partly Cloudy with Fog 57 13.9 55 12.8 93 93 NNW 3 6 30.19 1022 0 0 0.00 0.00
7:27 am 07:27 Partly Cloudy with Mist and Fog 57 13.9 56 13.3 96 96 N 3 6 30.19 1022 3 5 0.00 0.00
7:44 am 07:44 Sunny with Mist and Fog 60 15.6 58 14.4 93 93 N 3 6 30.19 1022 3 4 0.00 0.00
7:53 am 07:53 Sunny with Mist and Fog 60 15.6 58 14.4 93 93 N 3 6 30.21 1023 3 4 0.00 0.00
8:12 am 08:12 Sunny with Mist and Fog 61 16.1 59 15 93 93 NNE 3 6 30.19 1022 3 5 0.00 0.00
8:53 am 08:53 Sunny with Mist and Fog 64 17.8 61 16.1 90 90 NE 3 6 30.21 1023 5 8 0.00 0.00
9:53 am 09:53 Sunny 70 21.1 63 17.2 78 78 NE 5 7 30.20 1023 10 16 0.00 0.00
10:53 am 10:53 Sunny 74 23.3 61 16.1 64 64 ESE 7 11 30.19 1023 10 16 0.00 0.00
11:53 am 11:53 Sunny 77 25 59 15 54 54 SE 6 9 30.19 1022 10 16 0.00 0.00
12:53 pm 12:53 Partly Cloudy 80 26.7 58 14.4 47 47 SE 6 9 30.17 1022 10 16 0.00 0.00
1:53 pm 13:53 Mostly Sunny 80 26.7 56 13.3 44 44 E 5 7 30.16 1022 10 16 0.00 0.00
2:53 pm 14:53 Partly Cloudy 80 26.7 57 13.9 45 45 VRB 5 7 30.16 1021 10 16 0.00 0.00
3:53 pm 15:53 Mostly Cloudy 82 27.8 58 14.4 44 44 ESE 9 15 30.15 1021 10 16 0.00 0.00
4:53 pm 16:53 Sunny 81 27.2 57 13.9 44 44 ESE 6 9 30.14 1021 10 16 0.00 0.00
5:53 pm 17:53 Sunny 81 27.2 56 13.3 42 42 SE 7 11 30.13 1020 10 16 0.00 0.00
6:53 pm 18:53 Sunny 80 26.7 58 14.4 47 47 ESE 8 13 30.12 1020 10 16 0.00 0.00
7:53 pm 19:53 Sunny 76 24.4 58 14.4 54 54 SSE 6 9 30.11 1020 10 16 0.00 0.00
8:53 pm 20:53 Clear 72 22.2 60 15.6 66 66 SSE 3 6 30.12 1020 10 16 0.00 0.00
9:53 pm 21:53 Clear 70 21.1 60 15.6 71 71 S 5 7 30.13 1020 10 16 0.00 0.00
10:53 pm 22:53 Clear 66 18.9 59 15 78 78 Calm 30.12 1020 10 16 0.00 0.00
11:53 pm 23:53 Clear 66 18.9 60 15.6 81 81 S 6 9 30.10 1019 10 16 0.00 0.00

Powered by AerisWeather